Piloten Info

Wichtige Hinweise:

  • Neue Tower Frequenz 122,330 kHz - keine Landung ohne Funkkontakt
  • PPR Betrieb
  • Temporäre Hindernisse (Baukräne) nahe dem Flugplatz durch Bauarbeiten entlang der Nürnberger Straße (Östliche Seite).
  • Starts auf RWY 09 sind nicht gestattet. Start generell auf RWY 27. Bei Planung Rückenwinde berücksichtigen!
  • Bei Anflügen auf RWY 27 sind Hindernisse vorhanden, aus diesem Grund die versetzte Schwelle27!
  • Der Flugverein Neumarkt führt seine Starts generell auf RWY 27 und Landungen auf RWY09 durch.
  • Es besteht keine Tankmöglichkeit.

Diese Hinweis sind als Ergänzung / Hilfe zur regulären Flugplanung gedacht.

Auszüge aus AIP VFR ohne Gewähr - es gelten die offiziellen Veröffentlichungen.




Wind Infos (noch im Aufbau)

Wind Speed
Wind Direction


METAR Informationen der nächstgelegenen Flughäfen


EDDN / Flughafen Nürnberg „Albrecht Dürer“

EDDN 200320Z 10005KT CAVOK 01/M00 Q1018

ETIC / Fliegerhorst Grafenwöhr AAF

ETIC 200336Z AUTO 00000KT 1600 R14/1100VP1500 BR CLR M03/M04 A3007 RMK AO2 VIS 1600V6000 SLP202 $

ETIH / Fliegerhorst Hohenfels AAF

ETIH 200306Z AUTO 00000KT 9999 BKN009 M01/M03 A3011 RMK AO2 BKN V SCT SLP214 $